Cloud_Cover
97 100 100 100 21 18 9 6 0 0 0 0 1 0 10 100 67 2 0 2 5 5 7 8 9 4 0 0 0 0 0 0 0 0 0 0 0 0 0 0 9 3 2
100 92 100 15 15 0 0 4 1 1 0 0 4 5 54 86 61 5 5 5 65 58 5 5 5 5 3 0 0 0 0 0 12 0 0 0 0 0 9 86 3 13 22
15 4 8 8 1 3 0 0 13 5 4 0 5 5 100 100 86 5 5 5 31 5 5 5 5 4 3 0 0 0 0 3 0 0 0 0 0 0 66 100 43 90 98
1 1 0 0 0 4 0 0 5 5 5 7 6 94 98 9 5 5 5 5 5 5 5 5 4 3 5 0 0 0 0 4 0 0 0 0 0 4 98 98 98 100 96
5 1 5 0 0 0 0 0 2 5 37 100 58 28 4 1 5 5 5 27 5 49 16 5 7 3 0 0 0 0 0 0 0 0 3 3 4 7 89 100 100 100 100
5 4 0 0 0 0 0 0 5 5 5 5 5 5 5 5 90 100 38 13 25 11 0 1 0 0 5 1 0 0 0 0 0 5 5 5 5 4 69 100 100 100 100
0 0 0 0 0 5 5 5 5 5 22 98 9 5 34 100 94 7 28 99 8 3 3 1 2 0 0 0 2 2 0 5 37 34 5 5 5 22 5 65 89 98 100
0 0 0 4 4 5 5 5 5 87 100 57 5 5 53 8 4 5 5 5 0 3 1 0 0 4 0 3 0 2 5 5 4 2 0 0 3 13 23 44 100 100 100
2 4 5 5 5 5 18 5 30 97 49 5 5 5 5 5 5 5 5 2 1 3 2 0 0 3 2 2 0 5 3 0 0 0 5 5 5 5 18 92 100 100 85
5 5 5 5 5 36 26 9 100 100 5 5 5 5 5 5 5 5 5 2 5 1 0 0 0 2 0 0 5 0 0 0 0 0 0 5 98 92 73 96 100 100 100
7 5 5 5 9 35 7 96 100 100 56 41 7 5 5 56 5 5 5 5 5 0 0 0 0 0 4 4 0 0 0 0 0 0 0 0 2 3 4 17 100 88 100
65 28 5 5 74 24 87 100 100 100 100 94 6 17 99 7 5 5 5 3 4 3 1 0 0 5 0 0 0 0 0 0 0 0 0 0 5 5 4 8 93 76 16
99 32 7 99 100 99 100 100 100 100 98 51 48 100 5 5 5 5 5 5 5 2 3 5 3 3 0 0 4 4 3 0 0 0 0 0 4 2 1 3 96 100 100
20 75 100 100 100 100 100 100 100 100 93 80 97 5 5 5 5 5 5 0 5 4 5 10 38 5 5 1 23 5 0 2 0 0 0 1 18 80 100 100 100 49 98
100 100 100 100 100 100 100 100 100 100 100 89 5 5 5 5 5 4 3 5 5 5 4 23 21 2 4 4 0 0 0 0 0 0 0 5 5 0 4 12 58 80 99
100 100 97 93 96 100 100 100 100 100 95 15 22 5 5 5 4 3 5 5 5 4 6 5 5 1 12 4 0 0 3 5 3 2 2 1 0 0 0 1 11 28 99
12 79 32 8 95 100 100 100 100 100 59 99 31 5 5 5 14 24 5 5 0 1 0 5 2 3 4 0 0 5 0 4 1 1 0 0 0 0 0 0 0 0 2
28 5 22 89 75 99 100 100 76 85 100 52 5 16 5 47 30 11 5 5 5 1 5 5 3 1 0 5 1 0 4 0 0 0 0 1 3 5 5 0 0 0 0
99 44 26 40 94 100 100 100 94 99 49 26 9 5 96 48 5 22 12 5 5 15 5 4 5 5 5 5 1 5 4 0 0 0 3 5 4 5 5 5 0 0 0
100 100 97 100 100 100 99 100 97 26 25 11 5 94 72 5 59 85 5 5 5 1 5 5 5 5 5 5 5 2 5 3 0 0 0 5 4 0 0 0 3 0 4
100 100 100 97 97 99 83 96 88 5 4 5 73 89 56 5 5 5 5 5 0 0 5 5 5 5 94 58 5 0 3 0 2 0 0 0 0 0 0 0 4 5 3
100 100 100 100 97 100 99 45 5 5 36 44 92 57 12 5 5 5 5 2 0 2 5 5 7 28 53 5 65 5 4 0 0 0 0 0 0 0 0 0 5 52 5
100 100 100 92 100 100 100 27 28 91 62 74 13 5 5 76 5 5 5 2 2 5 5 6 9 7 73 7 7 44 25 8 28 0 0 0 0 0 0 0 6 74 46
99 100 98 48 100 100 94 94 100 93 76 43 60 32 5 5 5 5 5 4 6 5 30 74 5 5 38 95 63 79 91 100 98 66 3 1 0 0 0 0 7 99 87
30 5 91 100 100 100 100 100 80 98 89 73 58 5 5 62 49 12 50 98 67 15 56 12 6 5 6 97 96 100 89 86 38 100 53 6 5 1 0 0 5 91 86
5 68 100 100 100 100 100 72 90 100 100 71 22 7 39 21 60 80 100 71 100 5 5 5 5 5 5 38 14 16 99 100 100 100 100 69 45 5 0 0 5 29 85